Norwood, MA

1:50 PM EDT on September 29, 2016 (GMT -0400)
Norwood Memorial

Weather History for KOWD - April, 2013

Change the Weather History Date:

Tuesday, April 23, 2013

  Actual Average Record
Temperature  
Mean Temperature 41 °F -  
Max Temperature 43 °F 59 °F 84 °F (2007)
Min Temperature 39 °F 36 °F 34 °F (2002)
Degree Days  
Heating Degree Days 24    
Moisture  
Dew Point 40 °F    
Average Humidity 91    
Maximum Humidity 100    
Minimum Humidity 65    
Precipitation  
Precipitation 0.13 in - - ()
Sea Level Pressure  
Sea Level Pressure 30.38 in    
Wind  
Wind Speed 8 mph (NE)    
Max Wind Speed 15 mph    
Max Gust Speed 22 mph    
Visibility 4 miles    
Events Rain    
Averages and records for this station are not official NWS values.
T = Trace of Precipitation, MM = Missing Value Source: NWS Daily Summary

Daily Weather History Graph

Daily Weather History Graph

Search for Another Location

Airport or City:

Trip Planner

Search our weather history database for the weather conditions in past years. The results will help you decide how hot, cold, wet, or windy it might be!

Date:

Astronomy

Apr. 23, 2013 Rise Set
Actual Time 5:51 AM EDT 7:35 PM EDT
Civil Twilight 5:21 AM EDT 8:05 PM EDT
Nautical Twilight 4:45 AM EDT 8:41 PM EDT
Astronomical Twilight 4:06 AM EDT 9:20 PM EDT
Moon 5:24 PM EDT (4/23) 4:20 AM EDT (4/23)
Length of Visible Light 14h 43m
Length of Day
13h 43m
Waxing Gibbous, 94% of the Moon is Illuminated
Apr 23
Waxing Gibbous
Apr 25
Full
May 2
Last Quarter
May 9
New
May 18
First Quarter

Hourly Weather History & Observations

Time (EDT) Temp. Windchill Dew Point Humidity Pressure Visibility Wind Dir Wind Speed Gust Speed Precip Events Conditions
12:46 AM 39.2 °F 34.2 °F 32.0 °F 75% 30.57 in 10.0 mi ENE 6.9 mph - N/A   Mostly Cloudy
12:53 AM 39.9 °F 35.1 °F 30.9 °F 70% 30.57 in 10.0 mi ENE 6.9 mph - N/A   Mostly Cloudy
1:53 AM 41.0 °F 38.0 °F 32.0 °F 70% 30.55 in 10.0 mi ENE 4.6 mph - N/A   Mostly Cloudy
2:05 AM 41.0 °F 35.2 °F 30.2 °F 65% 30.53 in 10.0 mi ENE 9.2 mph - N/A   Mostly Cloudy
2:53 AM 41.0 °F 38.0 °F 32.0 °F 70% 30.51 in 10.0 mi NE 4.6 mph - N/A   Overcast
3:01 AM 41.0 °F 37.1 °F 33.8 °F 76% 30.51 in 10.0 mi ENE 5.8 mph - N/A   Overcast
3:53 AM 42.1 °F 38.4 °F 35.1 °F 76% 30.50 in 10.0 mi ENE 5.8 mph - N/A   Overcast
4:53 AM 42.1 °F 36.6 °F 36.0 °F 79% 30.48 in 10.0 mi ENE 9.2 mph - N/A   Overcast
6:21 AM 41.0 °F 36.4 °F 39.2 °F 93% 30.47 in 2.0 mi NE 6.9 mph - N/A   Overcast
6:53 AM 41.0 °F 37.1 °F 39.9 °F 96% 30.47 in 2.0 mi NE 5.8 mph - N/A   Overcast
7:00 AM 41.0 °F 37.1 °F 39.2 °F 93% 30.47 in 1.8 mi NE 5.8 mph - N/A   Overcast
7:21 AM 41.0 °F 37.1 °F 39.2 °F 93% 30.47 in 2.5 mi NE 5.8 mph - N/A   Overcast
7:53 AM 41.0 °F 35.8 °F 39.9 °F 96% 30.47 in 1.8 mi NE 8.1 mph - N/A   Overcast
8:16 AM 41.0 °F 35.2 °F 39.2 °F 93% 30.46 in 2.5 mi NE 9.2 mph - N/A   Overcast
8:24 AM 42.8 °F 38.0 °F 39.2 °F 87% 30.46 in 5.0 mi NE 8.1 mph - N/A   Overcast
8:41 AM 42.8 °F 37.5 °F 39.2 °F 87% 30.46 in 2.5 mi NE 9.2 mph - N/A   Overcast
8:53 AM 42.1 °F 38.4 °F 39.9 °F 92% 30.46 in 2.5 mi NE 5.8 mph 17.3 mph N/A   Overcast
9:35 AM 42.8 °F 37.0 °F 41.0 °F 93% 30.44 in 1.8 mi NE 10.4 mph 19.6 mph N/A   Overcast
9:53 AM 42.1 °F 37.1 °F 41.0 °F 96% 30.45 in 1.8 mi NE 8.1 mph - N/A   Overcast
10:45 AM 42.8 °F 36.2 °F 41.0 °F 93% 30.43 in 2.0 mi NE 12.7 mph 17.3 mph N/A   Overcast
10:53 AM 43.0 °F 37.7 °F 41.0 °F 93% 30.43 in 2.0 mi NE 9.2 mph 18.4 mph N/A   Overcast
11:33 AM 42.8 °F 37.5 °F 42.8 °F 100% 30.42 in 3.0 mi NE 9.2 mph 16.1 mph 0.00 in   Overcast
11:53 AM 43.0 °F 37.2 °F 41.0 °F 93% 30.42 in 4.0 mi NE 10.4 mph 17.3 mph 0.00 in   Overcast
12:53 PM 43.0 °F 37.2 °F 41.0 °F 93% 30.39 in 4.0 mi NE 10.4 mph 21.9 mph N/A   Overcast
1:53 PM 43.0 °F 36.8 °F 41.0 °F 93% 30.35 in 5.0 mi NE 11.5 mph 19.6 mph N/A   Overcast
2:37 PM 42.8 °F 36.2 °F 41.0 °F 93% 30.33 in 2.5 mi NNE 12.7 mph 18.4 mph N/A   Overcast
2:53 PM 43.0 °F 37.7 °F 42.1 °F 97% 30.32 in 2.0 mi NE 9.2 mph 19.6 mph N/A   Overcast
3:22 PM 42.8 °F 37.0 °F 42.8 °F 100% 30.31 in 1.8 mi NE 10.4 mph 17.3 mph N/A   Overcast
3:28 PM 42.8 °F 38.0 °F 42.8 °F 100% 30.30 in 3.0 mi NE 8.1 mph - N/A   Overcast
3:41 PM 42.8 °F 38.0 °F 42.8 °F 100% 30.30 in 2.5 mi NNE 8.1 mph - N/A   Overcast
3:53 PM 43.0 °F 37.2 °F 42.1 °F 97% 30.30 in 1.5 mi NE 10.4 mph 20.7 mph 0.01 in Rain Light Rain
4:53 PM 43.0 °F 37.2 °F 42.1 °F 97% 30.28 in 2.5 mi NNE 10.4 mph 17.3 mph 0.02 in Rain Light Rain
5:01 PM 42.8 °F 38.6 °F 42.8 °F 100% 30.28 in 5.0 mi NNE 6.9 mph 18.4 mph 0.00 in   Overcast
5:15 PM 42.8 °F 36.6 °F 42.8 °F 100% 30.28 in 1.8 mi NNE 11.5 mph 19.6 mph 0.00 in Rain Light Rain
5:53 PM 43.0 °F 37.7 °F 42.1 °F 97% 30.26 in 1.2 mi NNE 9.2 mph - 0.02 in   Overcast
6:31 PM 42.8 °F 35.4 °F 42.8 °F 100% 30.24 in 2.0 mi NNE 15.0 mph 21.9 mph 0.01 in   Overcast
6:38 PM 42.8 °F 36.6 °F 42.8 °F 100% 30.24 in 1.8 mi NNE 11.5 mph 21.9 mph 0.01 in   Overcast
6:53 PM 43.0 °F 37.2 °F 42.1 °F 97% 30.23 in 1.8 mi NNE 10.4 mph 20.7 mph 0.01 in   Overcast
7:53 PM 43.0 °F 38.8 °F 42.1 °F 97% 30.21 in 2.5 mi North 6.9 mph 17.3 mph 0.01 in Rain Light Rain
8:53 PM 43.0 °F 36.4 °F 42.1 °F 97% 30.20 in 2.5 mi NNE 12.7 mph 19.6 mph 0.04 in Rain Light Rain
9:53 PM 43.0 °F 36.4 °F 41.0 °F 93% 30.17 in 3.0 mi NE 12.7 mph 19.6 mph 0.01 in   Overcast
10:53 PM 43.0 °F 37.7 °F 42.1 °F 97% 30.14 in 2.0 mi North 9.2 mph - N/A   Overcast
11:53 PM 43.0 °F 36.8 °F 42.1 °F 97% 30.10 in 2.5 mi NNE 11.5 mph 18.4 mph 0.01 in   Overcast